RYR8UB EPMO-LGKR

Flight info

Callsign RYR8UB
Flight time N/A
Altitude 37000
Route EVINA DCT KUKAM M66 BABKO DCT KEROP DCT RODON N732 PITAS
Aircraft B738/M-SDE3FGILRWY/SB1

Departure

Time 2026-04-20 18:01
Airport Warsaw Modlin Airport (EPMO)

Arrival

Time N/A
Airport Corfu Ioannis Kapodistrias International Airport (LGKR)
Time Latitude Longitude Altitude Speed Heading
2026-04-20 17:31 52.44736 20.65178 332 ft 0 kts 206°
2026-04-20 17:52 52.44738 20.65179 337 ft 2 kts 206°
2026-04-20 17:53 52.44761 20.65199 334 ft 4 kts 213°
2026-04-20 17:53 52.44782 20.65226 334 ft 4 kts 232°
2026-04-20 17:53 52.44791 20.65256 335 ft 0 kts 261°
2026-04-20 17:56 52.44791 20.65253 337 ft 1 kts 261°
2026-04-20 17:56 52.44787 20.65215 337 ft 7 kts 260°
2026-04-20 17:56 52.44775 20.65097 335 ft 14 kts 261°
2026-04-20 17:57 52.44757 20.64903 337 ft 20 kts 261°
2026-04-20 17:57 52.44737 20.64693 337 ft 14 kts 261°
2026-04-20 17:57 52.44722 20.64539 337 ft 13 kts 261°
2026-04-20 17:57 52.44708 20.64392 336 ft 14 kts 261°
2026-04-20 17:58 52.44691 20.64219 332 ft 17 kts 261°
2026-04-20 17:58 52.44673 20.64020 337 ft 18 kts 261°
2026-04-20 17:58 52.44655 20.63827 334 ft 13 kts 261°
2026-04-20 17:58 52.44644 20.63708 335 ft 10 kts 261°
2026-04-20 17:59 52.44633 20.63590 335 ft 11 kts 261°
2026-04-20 17:59 52.44643 20.63464 336 ft 12 kts 320°
2026-04-20 17:59 52.44726 20.63431 334 ft 12 kts 351°
2026-04-20 17:59 52.44810 20.63411 337 ft 12 kts 352°
2026-04-20 18:00 52.44891 20.63395 335 ft 12 kts 359°
2026-04-20 18:00 52.44946 20.63410 337 ft 5 kts 39°
2026-04-20 18:00 52.44959 20.63465 334 ft 5 kts 81°
2026-04-20 18:00 52.44959 20.63471 337 ft 0 kts 81°
2026-04-20 18:01 52.44973 20.63610 336 ft 41 kts 81°
2026-04-20 18:01 52.45055 20.64469 334 ft 109 kts 81°
2026-04-20 18:01 52.45203 20.65995 428 ft 153 kts 81°
2026-04-20 18:01 52.45379 20.67782 985 ft 164 kts 80°
2026-04-20 18:02 52.45572 20.69645 1722 ft 167 kts 79°
2026-04-20 18:02 52.45790 20.71685 2047 ft 197 kts 79°
2026-04-20 18:02 52.46041 20.73993 2475 ft 211 kts 80°
2026-04-20 18:02 52.46060 20.76487 2793 ft 237 kts 107°
2026-04-20 18:03 52.45028 20.78644 3404 ft 252 kts 145°
2026-04-20 18:03 52.43346 20.79587 4209 ft 262 kts 172°
2026-04-20 18:03 52.41504 20.79399 4986 ft 270 kts 188°
2026-04-20 18:03 52.39658 20.78670 5731 ft 275 kts 192°
2026-04-20 18:04 52.37797 20.77807 6515 ft 280 kts 193°
2026-04-20 18:04 52.35922 20.76921 7322 ft 282 kts 193°
2026-04-20 18:04 52.34018 20.76038 8032 ft 287 kts 193°
2026-04-20 18:04 52.32082 20.75157 8724 ft 291 kts 192°
2026-04-20 18:05 52.28119 20.73395 10184 ft 298 kts 193°
2026-04-20 18:05 52.26074 20.72508 10605 ft 315 kts 193°
2026-04-20 18:05 52.23880 20.71563 10824 ft 336 kts 193°
2026-04-20 18:06 52.21582 20.70576 11385 ft 344 kts 194°
2026-04-20 18:06 52.19253 20.69578 12121 ft 347 kts 194°
2026-04-20 18:06 52.16945 20.68594 12869 ft 349 kts 194°
2026-04-20 18:06 52.14584 20.67589 13601 ft 352 kts 194°
2026-04-20 18:07 52.12207 20.66579 14346 ft 354 kts 195°
2026-04-20 18:07 52.09810 20.65563 15117 ft 357 kts 195°
2026-04-20 18:07 52.07389 20.64539 15756 ft 364 kts 195°
2026-04-20 18:07 52.04915 20.63492 16346 ft 371 kts 195°
2026-04-20 18:08 52.02413 20.62436 17068 ft 373 kts 195°
2026-04-20 18:08 51.99893 20.61373 17764 ft 376 kts 195°
2026-04-20 18:08 51.97345 20.60300 18424 ft 379 kts 195°
2026-04-20 18:08 51.94789 20.59226 19147 ft 380 kts 195°
2026-04-20 18:09 51.92214 20.58144 19732 ft 385 kts 195°
2026-04-20 18:09 51.89604 20.57050 20320 ft 389 kts 195°
2026-04-20 18:09 51.86971 20.55949 20939 ft 392 kts 195°
2026-04-20 18:09 51.84319 20.54840 21488 ft 396 kts 196°
2026-04-20 18:10 51.81642 20.53721 22036 ft 399 kts 196°
2026-04-20 18:10 51.78944 20.52594 22584 ft 402 kts 196°
2026-04-20 18:10 51.76227 20.51461 23120 ft 405 kts 196°
2026-04-20 18:10 51.73487 20.50320 23610 ft 409 kts 196°
2026-04-20 18:11 51.70720 20.49169 24089 ft 412 kts 196°
2026-04-20 18:11 51.67934 20.48014 24579 ft 414 kts 196°
2026-04-20 18:11 51.65136 20.46853 25087 ft 417 kts 196°
2026-04-20 18:11 51.62319 20.45686 25562 ft 419 kts 196°
2026-04-20 18:12 51.59493 20.44516 26019 ft 421 kts 196°
2026-04-20 18:12 51.56649 20.43341 26454 ft 423 kts 196°
2026-04-20 18:12 51.53785 20.42159 26881 ft 426 kts 196°
2026-04-20 18:12 51.50946 20.40989 27308 ft 427 kts 196°
2026-04-20 18:13 51.48059 20.39801 27707 ft 429 kts 195°
2026-04-20 18:13 51.45159 20.38608 28104 ft 431 kts 195°
2026-04-20 18:13 51.42242 20.37411 28491 ft 433 kts 195°
2026-04-20 18:13 51.39316 20.36212 28865 ft 435 kts 196°
2026-04-20 18:14 51.36398 20.34883 29234 ft 436 kts 198°
2026-04-20 18:14 51.33499 20.33405 29589 ft 438 kts 199°
2026-04-20 18:14 51.30602 20.31866 29925 ft 440 kts 200°
2026-04-20 18:14 51.27697 20.30316 30247 ft 441 kts 200°
2026-04-20 18:15 51.24773 20.28763 30530 ft 444 kts 199°
2026-04-20 18:15 51.21829 20.27217 30787 ft 447 kts 199°
2026-04-20 18:15 51.18872 20.25677 31148 ft 447 kts 199°
2026-04-20 18:15 51.15917 20.24151 31536 ft 446 kts 199°
2026-04-20 18:16 51.12963 20.22630 31847 ft 447 kts 199°
2026-04-20 18:16 51.09996 20.21106 32127 ft 449 kts 199°
2026-04-20 18:16 51.07023 20.19581 32458 ft 449 kts 199°
2026-04-20 18:16 51.04051 20.18058 32811 ft 448 kts 199°
2026-04-20 18:17 51.01082 20.16538 33141 ft 448 kts 199°
2026-04-20 18:17 50.98104 20.15015 33399 ft 450 kts 199°
2026-04-20 18:17 50.95122 20.13491 33676 ft 451 kts 199°
2026-04-20 18:17 50.92139 20.11969 33982 ft 451 kts 199°
2026-04-20 18:18 50.89153 20.10448 34264 ft 451 kts 199°
2026-04-20 18:18 50.86160 20.08924 34563 ft 451 kts 199°
2026-04-20 18:18 50.83173 20.07407 34868 ft 451 kts 199°
2026-04-20 18:18 50.80186 20.05892 35138 ft 451 kts 199°
2026-04-20 18:19 50.77195 20.04374 35393 ft 452 kts 199°
2026-04-20 18:19 50.74207 20.02857 35681 ft 451 kts 199°
2026-04-20 18:19 50.71222 20.01344 35941 ft 451 kts 199°
2026-04-20 18:19 50.68234 19.99830 36169 ft 451 kts 199°
2026-04-20 18:20 50.65242 19.98316 36399 ft 452 kts 199°
2026-04-20 18:20 50.62245 19.96801 36589 ft 453 kts 199°
2026-04-20 18:20 50.59237 19.95284 36845 ft 452 kts 199°
2026-04-20 18:20 50.56249 19.93778 37068 ft 452 kts 199°
2026-04-20 18:21 50.50300 19.90786 37038 ft 449 kts 199°
2026-04-20 18:21 50.44379 19.87817 37040 ft 441 kts 199°
2026-04-20 18:22 50.38563 19.84909 37054 ft 442 kts 199°
2026-04-20 18:22 50.32697 19.81981 37048 ft 442 kts 199°
2026-04-20 18:23 50.26833 19.79064 37052 ft 442 kts 199°
2026-04-20 18:23 50.20963 19.76147 37048 ft 443 kts 199°
2026-04-20 18:24 50.16080 19.73728 37047 ft 443 kts 199°
2026-04-20 18:24 50.10210 19.70826 37049 ft 443 kts 199°
2026-04-20 18:25 50.04329 19.67931 37046 ft 444 kts 199°
2026-04-20 18:25 49.98435 19.65035 37048 ft 444 kts 199°
2026-04-20 18:26 49.92542 19.62146 37047 ft 444 kts 199°
2026-04-20 18:26 49.86641 19.59260 37046 ft 445 kts 199°
2026-04-20 18:27 49.80740 19.56382 37045 ft 445 kts 199°
2026-04-20 18:27 49.74825 19.53504 37033 ft 445 kts 199°
2026-04-20 18:28 49.68920 19.50636 37031 ft 445 kts 199°
2026-04-20 18:28 49.63003 19.47820 37023 ft 445 kts 195°
2026-04-20 18:29 49.56815 19.47004 37032 ft 449 kts 179°
2026-04-20 18:29 49.50563 19.47518 37024 ft 450 kts 179°
2026-04-20 18:30 49.44313 19.48056 37018 ft 450 kts 179°
2026-04-20 18:30 49.38103 19.48534 37021 ft 449 kts 179°
2026-04-20 18:31 49.31855 19.48980 37004 ft 450 kts 180°
2026-04-20 18:31 49.25611 19.49418 37015 ft 449 kts 180°
2026-04-20 18:32 49.19368 19.49851 37006 ft 449 kts 180°
2026-04-20 18:32 49.13124 19.50285 36999 ft 449 kts 180°
2026-04-20 18:33 49.06881 19.50720 37001 ft 449 kts 180°
2026-04-20 18:33 49.00637 19.51154 36996 ft 450 kts 180°
2026-04-20 18:34 48.94369 19.51589 36982 ft 451 kts 180°
2026-04-20 18:34 48.88100 19.52023 36974 ft 451 kts 180°
2026-04-20 18:35 48.81848 19.52455 36982 ft 450 kts 180°
2026-04-20 18:35 48.75584 19.52885 36975 ft 450 kts 181°
2026-04-20 18:36 48.69326 19.53314 36985 ft 449 kts 181°
2026-04-20 18:36 48.63115 19.53739 36986 ft 450 kts 181°
2026-04-20 18:37 48.56868 19.54165 36989 ft 450 kts 181°
2026-04-20 18:37 48.50608 19.54589 36990 ft 450 kts 181°
2026-04-20 18:38 48.44342 19.55016 36989 ft 451 kts 181°
2026-04-20 18:38 48.38072 19.55442 36992 ft 451 kts 181°
2026-04-20 18:39 48.31793 19.55866 36992 ft 451 kts 181°
2026-04-20 18:39 48.25514 19.56289 36989 ft 452 kts 181°
2026-04-20 18:40 48.19237 19.56710 36994 ft 451 kts 181°
2026-04-20 18:40 48.12962 19.57131 36988 ft 452 kts 181°
2026-04-20 18:41 48.06673 19.57554 36994 ft 451 kts 181°
2026-04-20 18:41 48.00396 19.57973 36993 ft 451 kts 181°
2026-04-20 18:42 47.94124 19.58391 36984 ft 451 kts 181°
2026-04-20 18:42 47.87849 19.58807 36985 ft 451 kts 181°
2026-04-20 18:43 47.81573 19.59222 36995 ft 451 kts 181°
2026-04-20 18:43 47.75300 19.59636 36988 ft 451 kts 181°
2026-04-20 18:44 47.69073 19.60048 36988 ft 451 kts 182°
2026-04-20 18:44 47.62811 19.60461 36993 ft 450 kts 182°
2026-04-20 18:45 47.56551 19.60873 36988 ft 450 kts 182°
2026-04-20 18:45 47.50293 19.61283 36993 ft 450 kts 182°
2026-04-20 18:46 47.44043 19.61691 36991 ft 450 kts 182°
2026-04-20 18:46 47.37794 19.62098 36989 ft 449 kts 182°
2026-04-20 18:47 47.31551 19.62503 36994 ft 449 kts 182°
2026-04-20 18:47 47.25296 19.62908 36994 ft 450 kts 182°
2026-04-20 18:48 47.19037 19.63314 36992 ft 450 kts 182°
2026-04-20 18:48 47.12769 19.63719 36990 ft 451 kts 182°
2026-04-20 18:49 47.06493 19.64124 36992 ft 452 kts 182°
2026-04-20 18:49 47.00211 19.64528 36991 ft 452 kts 182°
2026-04-20 18:50 46.93923 19.64933 36992 ft 452 kts 183°
2026-04-20 18:50 46.87674 19.65333 36988 ft 452 kts 183°
2026-04-20 18:51 46.81350 19.65735 36990 ft 452 kts 183°
2026-04-20 18:51 46.75102 19.66134 36997 ft 452 kts 183°
2026-04-20 18:52 46.68820 19.66534 36986 ft 452 kts 183°
2026-04-20 18:52 46.62546 19.66930 36994 ft 451 kts 183°
2026-04-20 18:53 46.56279 19.67326 36992 ft 450 kts 183°
2026-04-20 18:53 46.50017 19.67722 36998 ft 450 kts 183°
2026-04-20 18:54 46.43762 19.68112 37000 ft 450 kts 184°
2026-04-20 18:54 46.37496 19.68502 37001 ft 450 kts 184°
2026-04-20 18:55 46.31240 19.68897 37001 ft 450 kts 184°
2026-04-20 18:55 46.24986 19.69287 36999 ft 450 kts 184°
2026-04-20 18:56 46.18733 19.69667 36995 ft 448 kts 185°
2026-04-20 18:56 46.12606 19.69120 37006 ft 443 kts 192°
2026-04-20 18:57 46.06486 19.68186 37011 ft 442 kts 192°
2026-04-20 18:57 46.00356 19.67266 37006 ft 444 kts 192°
2026-04-20 18:58 45.94211 19.66405 37013 ft 444 kts 192°
2026-04-20 18:58 45.88066 19.65572 37017 ft 443 kts 192°
2026-04-20 18:59 45.81929 19.64744 37015 ft 442 kts 192°
2026-04-20 18:59 45.75794 19.63916 37023 ft 443 kts 192°
2026-04-20 19:00 45.69657 19.63089 37017 ft 443 kts 192°
2026-04-20 19:00 45.63517 19.62261 37021 ft 443 kts 192°
2026-04-20 19:01 45.57369 19.61434 37018 ft 444 kts 192°
2026-04-20 19:01 45.51213 19.60613 37015 ft 445 kts 192°
2026-04-20 19:02 45.45084 19.59795 37024 ft 444 kts 192°
2026-04-20 19:02 45.38930 19.58974 37013 ft 444 kts 192°
2026-04-20 19:03 45.32786 19.58153 37024 ft 443 kts 192°
2026-04-20 19:03 45.26652 19.57350 37031 ft 443 kts 192°
2026-04-20 19:04 45.20519 19.56537 37026 ft 442 kts 192°
2026-04-20 19:04 45.14384 19.55718 37033 ft 444 kts 192°
2026-04-20 19:05 45.08241 19.54907 37030 ft 444 kts 192°
2026-04-20 19:05 45.02093 19.54101 37038 ft 443 kts 192°
2026-04-20 19:06 44.95951 19.53298 37028 ft 443 kts 192°
2026-04-20 19:06 44.89817 19.52491 37032 ft 442 kts 192°
2026-04-20 19:07 44.83696 19.51694 37043 ft 441 kts 192°
2026-04-20 19:07 44.77590 19.50900 37050 ft 440 kts 192°
2026-04-20 19:08 44.68438 19.49708 37046 ft 440 kts 192°
2026-04-20 19:09 44.63370 19.49050 37046 ft 440 kts 192°
2026-04-20 19:09 44.56284 19.48134 37045 ft 440 kts 191°
2026-04-20 19:10 44.50185 19.47346 37049 ft 440 kts 191°
2026-04-20 19:10 44.45068 19.46686 37051 ft 441 kts 191°
2026-04-20 19:11 44.38963 19.45902 37042 ft 440 kts 191°
2026-04-20 19:11 44.32903 19.45124 37046 ft 440 kts 192°
2026-04-20 19:12 44.26805 19.44342 37039 ft 440 kts 191°
2026-04-20 19:12 44.20712 19.43565 37039 ft 439 kts 192°
2026-04-20 19:13 44.14615 19.42786 37026 ft 440 kts 191°
2026-04-20 19:13 44.08512 19.42010 37040 ft 440 kts 191°
2026-04-20 19:14 44.02422 19.41236 37039 ft 439 kts 191°
2026-04-20 19:14 43.96378 19.40469 37035 ft 439 kts 191°
2026-04-20 19:15 43.90297 19.39702 37036 ft 439 kts 191°
2026-04-20 19:15 43.84208 19.38933 37031 ft 439 kts 191°
2026-04-20 19:16 43.78127 19.38165 37036 ft 439 kts 191°
2026-04-20 19:16 43.72050 19.37404 37028 ft 438 kts 191°
2026-04-20 19:17 43.65978 19.36643 37031 ft 438 kts 191°
2026-04-20 19:17 43.59900 19.35878 37018 ft 439 kts 191°
2026-04-20 19:18 43.53828 19.35118 37024 ft 438 kts 191°
2026-04-20 19:18 43.47743 19.34358 37009 ft 440 kts 191°
2026-04-20 19:19 43.41640 19.33597 37009 ft 440 kts 191°
2026-04-20 19:19 43.35523 19.32838 37009 ft 441 kts 191°
2026-04-20 19:20 43.29411 19.32079 37010 ft 441 kts 191°
2026-04-20 19:20 43.23336 19.31331 37014 ft 441 kts 191°
2026-04-20 19:21 43.17221 19.30575 37014 ft 441 kts 191°
2026-04-20 19:21 43.11111 19.29823 37017 ft 441 kts 191°
2026-04-20 19:22 43.05005 19.29071 37013 ft 441 kts 191°
2026-04-20 19:22 42.98901 19.28321 37005 ft 440 kts 191°
2026-04-20 19:23 42.92793 19.27573 37013 ft 441 kts 191°
2026-04-20 19:23 42.86688 19.26827 36993 ft 441 kts 191°
2026-04-20 19:24 42.80575 19.26081 36988 ft 441 kts 191°
2026-04-20 19:24 42.74452 19.25336 36996 ft 441 kts 191°
2026-04-20 19:25 42.68338 19.24593 36998 ft 442 kts 191°
2026-04-20 19:25 42.62215 19.23851 37000 ft 442 kts 190°
2026-04-20 19:26 42.56094 19.23109 36997 ft 441 kts 190°
2026-04-20 19:26 42.49962 19.22367 36995 ft 442 kts 190°
2026-04-20 19:27 42.43877 19.21633 36985 ft 442 kts 190°
2026-04-20 19:27 42.37746 19.20895 36990 ft 442 kts 190°
2026-04-20 19:28 42.31618 19.20157 36989 ft 442 kts 190°
2026-04-20 19:28 42.25491 19.19425 36990 ft 442 kts 190°
2026-04-20 19:29 42.19356 19.18693 36991 ft 442 kts 190°
2026-04-20 19:29 42.13237 19.17963 36987 ft 442 kts 190°
2026-04-20 19:30 42.07115 19.17234 37004 ft 442 kts 190°
2026-04-20 19:30 42.00986 19.16504 36995 ft 443 kts 190°
2026-04-20 19:31 41.94845 19.15771 36996 ft 443 kts 190°
2026-04-20 19:31 41.88693 19.15041 36996 ft 443 kts 190°
2026-04-20 19:32 41.82592 19.14321 37002 ft 443 kts 190°
2026-04-20 19:32 41.76454 19.13598 37001 ft 443 kts 190°
2026-04-20 19:33 41.70306 19.12874 37000 ft 443 kts 190°
2026-04-20 19:33 41.64163 19.12152 37000 ft 443 kts 190°
2026-04-20 19:34 41.58021 19.11431 37000 ft 443 kts 190°
2026-04-20 19:34 41.51873 19.10710 37006 ft 443 kts 190°
2026-04-20 19:35 41.45686 19.10562 37004 ft 451 kts 176°
2026-04-20 19:35 41.42588 19.11409 36694 ft 458 kts 166°
2026-04-20 19:35 41.39601 19.12827 36432 ft 453 kts 163°
2026-04-20 19:35 41.36663 19.14312 36037 ft 449 kts 162°
2026-04-20 19:36 41.33753 19.15794 35664 ft 446 kts 162°
2026-04-20 19:36 41.30870 19.17249 35289 ft 443 kts 163°
2026-04-20 19:36 41.27995 19.18681 34914 ft 440 kts 163°
2026-04-20 19:36 41.25158 19.20079 34541 ft 436 kts 163°
2026-04-20 19:37 41.22312 19.21470 34166 ft 434 kts 163°
2026-04-20 19:37 41.19523 19.22827 33791 ft 431 kts 163°
2026-04-20 19:37 41.16715 19.24190 33419 ft 428 kts 163°
2026-04-20 19:37 41.13925 19.25542 33042 ft 426 kts 163°
2026-04-20 19:38 41.11150 19.26886 32672 ft 424 kts 163°
2026-04-20 19:38 41.08389 19.28223 32308 ft 421 kts 163°
2026-04-20 19:38 41.05642 19.29553 31931 ft 419 kts 163°
2026-04-20 19:38 41.02912 19.30873 31579 ft 417 kts 163°
2026-04-20 19:39 41.00191 19.32186 31215 ft 415 kts 163°
2026-04-20 19:39 40.97488 19.33491 30852 ft 413 kts 163°
2026-04-20 19:39 40.94798 19.34788 30494 ft 411 kts 163°
2026-04-20 19:39 40.92121 19.36077 30136 ft 409 kts 163°
2026-04-20 19:40 40.89459 19.37359 29781 ft 406 kts 163°
2026-04-20 19:40 40.86809 19.38634 29417 ft 404 kts 163°
2026-04-20 19:40 40.84176 19.39899 29045 ft 402 kts 163°
2026-04-20 19:40 40.81557 19.41157 28673 ft 400 kts 163°
2026-04-20 19:41 40.78950 19.42408 28304 ft 398 kts 163°
2026-04-20 19:41 40.76357 19.43651 27936 ft 396 kts 163°
2026-04-20 19:41 40.73774 19.44888 27567 ft 394 kts 163°
2026-04-20 19:41 40.71205 19.46118 27201 ft 392 kts 163°
2026-04-20 19:42 40.68640 19.47344 26837 ft 391 kts 163°
2026-04-20 19:42 40.66089 19.48563 26471 ft 389 kts 163°
2026-04-20 19:42 40.63548 19.49777 26106 ft 387 kts 163°
2026-04-20 19:42 40.61020 19.50984 25738 ft 386 kts 163°
2026-04-20 19:43 40.58501 19.52187 25368 ft 384 kts 163°
2026-04-20 19:43 40.55994 19.53379 25003 ft 382 kts 163°
2026-04-20 19:43 40.53497 19.54564 24660 ft 381 kts 163°
2026-04-20 19:43 40.51004 19.55745 24294 ft 379 kts 163°
2026-04-20 19:44 40.48559 19.56902 23948 ft 378 kts 163°
2026-04-20 19:44 40.46093 19.58069 23599 ft 376 kts 163°
2026-04-20 19:44 40.43635 19.59233 23239 ft 375 kts 163°
2026-04-20 19:44 40.41184 19.60392 22879 ft 374 kts 163°
2026-04-20 19:45 40.38742 19.61546 22531 ft 372 kts 163°
2026-04-20 19:45 40.36307 19.62696 22172 ft 371 kts 163°
2026-04-20 19:45 40.33882 19.63839 21819 ft 370 kts 163°
2026-04-20 19:45 40.31464 19.64980 21465 ft 368 kts 163°
2026-04-20 19:46 40.29059 19.66114 21114 ft 367 kts 163°
2026-04-20 19:46 40.26665 19.67241 20765 ft 365 kts 163°
2026-04-20 19:46 40.24281 19.68362 20417 ft 364 kts 162°
2026-04-20 19:46 40.21901 19.69481 20062 ft 362 kts 162°
2026-04-20 19:47 40.19533 19.70593 19713 ft 361 kts 163°
2026-04-20 19:47 40.17176 19.71700 19369 ft 359 kts 162°
2026-04-20 19:47 40.14825 19.72805 19021 ft 358 kts 163°
2026-04-20 19:47 40.12485 19.73901 18674 ft 356 kts 162°
2026-04-20 19:48 40.10157 19.74990 18337 ft 355 kts 162°
2026-04-20 19:48 40.07836 19.76076 17984 ft 353 kts 162°
2026-04-20 19:48 40.05527 19.77156 17637 ft 352 kts 162°
2026-04-20 19:48 40.03228 19.78230 17308 ft 350 kts 162°
2026-04-20 19:49 40.00941 19.79299 16959 ft 349 kts 162°
2026-04-20 19:49 39.98662 19.80363 16631 ft 347 kts 162°
2026-04-20 19:49 39.96392 19.81422 16293 ft 346 kts 162°
2026-04-20 19:49 39.94134 19.82475 15957 ft 344 kts 162°
2026-04-20 19:50 39.91881 19.83523 15627 ft 342 kts 162°
2026-04-20 19:50 39.89644 19.84567 15300 ft 340 kts 161°
2026-04-20 19:50 39.87477 19.85652 15027 ft 337 kts 160°
2026-04-20 19:50 39.85300 19.86776 14711 ft 335 kts 160°
2026-04-20 19:51 39.83136 19.87889 14386 ft 333 kts 161°
2026-04-20 19:51 39.80897 19.88436 14001 ft 326 kts 189°
2026-04-20 19:51 39.78834 19.87496 13717 ft 309 kts 221°
2026-04-20 19:51 39.77538 19.85414 13482 ft 290 kts 254°
2026-04-20 19:52 39.77114 19.82919 13248 ft 281 kts 262°
2026-04-20 19:52 39.76563 19.80473 12945 ft 284 kts 251°
2026-04-20 19:52 39.75603 19.78217 12659 ft 287 kts 239°
2026-04-20 19:52 39.74347 19.76194 12378 ft 288 kts 232°
2026-04-20 19:53 39.72970 19.74304 12090 ft 288 kts 230°
2026-04-20 19:53 39.71545 19.72476 11800 ft 287 kts 229°
2026-04-20 19:53 39.70107 19.70728 11517 ft 287 kts 226°
2026-04-20 19:53 39.68594 19.69039 11230 ft 286 kts 223°
2026-04-20 19:54 39.67027 19.67460 10949 ft 285 kts 220°
2026-04-20 19:54 39.65402 19.65992 10672 ft 284 kts 216°
2026-04-20 19:54 39.63726 19.64641 10391 ft 283 kts 213°
2026-04-20 19:54 39.62004 19.63411 10142 ft 281 kts 210°
2026-04-20 19:55 39.60273 19.62322 10030 ft 273 kts 207°
2026-04-20 19:55 39.58523 19.61357 9750 ft 273 kts 204°
2026-04-20 19:55 39.56739 19.60506 9490 ft 272 kts 201°
2026-04-20 19:55 39.54934 19.59776 9222 ft 271 kts 198°
2026-04-20 19:56 39.53728 19.59358 9046 ft 271 kts 195°
2026-04-20 19:56 39.51294 19.58679 8699 ft 270 kts 192°
2026-04-20 19:56 39.49420 19.58301 8424 ft 269 kts 189°
2026-04-20 19:56 39.47590 19.58050 8157 ft 268 kts 186°
2026-04-20 19:57 39.45736 19.57900 7895 ft 266 kts 184°
2026-04-20 19:57 39.43885 19.57837 7625 ft 266 kts 181°
2026-04-20 19:57 39.42040 19.57894 7357 ft 266 kts 178°
2026-04-20 19:57 39.40188 19.58164 7075 ft 271 kts 164°
2026-04-20 19:58 39.38659 19.59528 6781 ft 272 kts 126°
2026-04-20 19:58 39.38049 19.61789 6520 ft 270 kts 89°
2026-04-20 19:58 39.38334 19.64176 6197 ft 270 kts 78°
2026-04-20 19:58 39.38722 19.66557 5880 ft 269 kts 78°
2026-04-20 19:59 39.39081 19.68911 5588 ft 266 kts 79°
2026-04-20 19:59 39.39423 19.71239 5302 ft 261 kts 79°
2026-04-20 19:59 39.39739 19.73535 5025 ft 257 kts 82°
2026-04-20 19:59 39.39835 19.75819 4767 ft 253 kts 90°
2026-04-20 20:00 39.39837 19.78081 4503 ft 250 kts 90°
2026-04-20 20:00 39.39844 19.80305 4353 ft 243 kts 90°
2026-04-20 20:00 39.39861 19.82447 4236 ft 236 kts 89°
2026-04-20 20:00 39.39886 19.84559 4141 ft 235 kts 89°
2026-04-20 20:01 39.39911 19.86692 4055 ft 239 kts 89°
2026-04-20 20:01 39.39993 19.88121 3977 ft 242 kts 79°
2026-04-20 20:01 39.40460 19.90210 3737 ft 245 kts 72°
2026-04-20 20:01 39.40969 19.92308 3471 ft 238 kts 73°
2026-04-20 20:02 39.41439 19.94309 3367 ft 225 kts 72°
2026-04-20 20:02 39.42171 19.95980 3276 ft 207 kts 35°
2026-04-20 20:02 39.43475 19.96415 3205 ft 194 kts 356°